User: anonymous   Login
Location: Izdebno
(52.6670°N, 16.2170°E)
Time: 08:07:53
(UTC+01:00)
Language:

Vanguard 1 Rocket - Orbit

View from above orbital plane
View from above orbital plane
View from above satellite
View from above satellite

Ground track
Ground track

The orbit data is extracted from the following two-line orbital elements,

1 00016U 58002A   24056.84171539  .00000814  00000-0  11339-2 0  9999
2 00016  34.2582 220.8170 2022233 163.8869 203.7008 10.49110253600415
Epoch (UTC): 25 February 2024 20:12:04
Eccentricity: 0.2022233
inclination: 34.2582°
perigee height: 654 km
apogee height: 4218 km
right ascension of ascending node: 220.8170°
argument of perigee: 163.8869°
revolutions per day: 10.49110253
mean anomaly at epoch: 203.7008°
orbit number at epoch: 60041

The dashed part of the orbit path shows where the satellite is in the earth's shadow,  

DLR